Find Beidou DW 3

NORAD ID: 36287 Int'l Des: 2010-001 Owner: CNSA Country: CN Constellation: BeiDou operational
HEOCIRCULARGSO

Live Position

Loading 3D Globe...

About Beidou DW 3

Description loading...

Upcoming Passes

Passes for default location (London). Set your location on the main map for personalized predictions.

Altitude History

Loading altitude history...

Two-Line Element Set

1 36287U 10001A 26104.81629272 -.00000271 00000-0 00000+0 0 9998
2 36287 4.1442 60.5659 0003816 294.7729 281.9956 1.00274112 59532
Epoch: Apr 14, 2026 • Age: 11 hours

Current Status

Altitude 35786.0 km
Velocity 3.07 km/s
Sub-Earth Point 1.92°N, 140.46°E
Launch Date Jan 16, 2010
Age 16.2 years
Type navigation

Technical Details

Classification Payload
Mass 3060.00 kg
Dry Mass 1700.00 kg
Total Mass 3060.00 kg
Length 3.00 m
Diameter 1.70 m
Span 18.00 m
Shape Box + 2 Pan
Manufacturer CAST
Bus Type DFH-3B
Phase Status In Orbit
Owner/State CNSA/CN

Most Searched